Weather observations for the past three days for
Ogdensburg International Airport
Imperial (Metric)
Date Time (edt) Wind (mph) Vis. (mi.) Weather Sky Cond. Temperature (ºF) Relative Humidity Wind Chill (°F) Heat Index (°F) Pressure Precipitation (in)
Air Dwpt 6 hour altimeter (in) sea level (mb) 1 hr 3 hr 6 hr
Max. Min.
18 11:55 SW 8 G 15 10.00 Mostly Cloudy BKN022 BKN065 84.2 73.4 70% 91 30.13 0.0
18 11:35 SW 8 G 14 10.00 Mostly Cloudy BKN021 84.2 75.2 74% 92 30.14 0.0
18 11:15 SW 10 10.00 Fair CLR 82.4 73.4 74% 88 30.14 0.0
18 10:55 SW 10 10.00 A Few Clouds FEW070 80.6 73.4 79% 85 30.14 0.0
18 10:35 Vrbl 7 10.00 A Few Clouds FEW016 FEW055 80.6 73.4 79% 85 30.13 0.0
18 10:15 S 8 10.00 A Few Clouds FEW047 78.8 73.4 84% 82 30.14 0.0
18 09:55 SW 9 G 15 10.00 A Few Clouds FEW046 77 73.4 89% 78 30.14 0.0
18 09:35 SW 7 9.00 Mostly Cloudy BKN044 BKN050 75.2 73.4 94% 74 30.14 0.0
18 09:15 Calm 7.00 Mostly Cloudy BKN044 73.4 73.4 100% 30.14 0.0
18 08:55 Calm 5.00 Fog/Mist BKN042 BKN049 OVC075 71.6 71.6 100% 30.14 0.0 0.07
18 08:35 Calm 3.00 Fog/Mist FEW029 BKN046 BKN055 71.6 71.6 100% 30.13 0.0
18 08:15 S 3 1.50 Light Rain SCT003 BKN033 OVC055 71.6 71.6 100% 30.13 0.0
18 07:55 SW 6 2.00 Thunderstorm in Vicinity Rain FEW013 SCT034 OVC060 71.6 69.8 94% 30.13 0.0 0.05
18 07:35 S 10 G 18 4.00 Thunderstorm in Vicinity Rain OVC055 73.4 69.8 89% 30.11 0.0
18 07:15 S 9 10.00 Overcast BKN055 OVC070 71.6 69.8 94% 30.1 0.0
18 06:55 SW 6 10.00 Partly Cloudy SCT070 71.6 68 88% 30.1 0.0
18 06:35 S 5 10.00 A Few Clouds FEW060 69.8 66.2 88% 30.09 0.0
18 06:15 S 3 10.00 Fair CLR 68 66.2 94% 30.09 0.0
18 05:55 Calm 10.00 Fair CLR 68 66.2 94% 30.08 0.0
18 05:35 S 5 10.00 Fair CLR 68 66.2 94% 30.07 0.0
18 05:15 Vrbl 3 10.00 A Few Clouds FEW055 FEW065 66.2 66.2 100% 30.07 0.0
18 04:55 Calm 10.00 Mostly Cloudy BKN060 BKN070 66.2 64.4 94% 30.06 0.0
18 04:35 Vrbl 3 10.00 Mostly Cloudy BKN060 66.2 64.4 94% 30.06 0.0
18 04:15 Calm 10.00 A Few Clouds FEW065 66.2 64.4 94% 30.05 0.0
18 03:55 Calm 10.00 A Few Clouds FEW070 64.4 64.4 100% 30.06 0.0
18 03:35 Calm 9.00 Fair CLR 66.2 64.4 94% 30.05 0.0
18 03:15 Calm 10.00 Fair CLR 66.2 64.4 94% 30.05 0.0
18 02:55 Calm 10.00 A Few Clouds FEW050 FEW055 66.2 64.4 94% 30.05 0.0
18 02:15 Calm 10.00 Fair CLR 68 66.2 94% 30.04 0.0
18 01:55 Vrbl 3 10.00 Fair CLR 68 66.2 94% 30.04 0.0
18 01:35 S 3 10.00 Fair CLR 68 66.2 94% 30.03 0.0
18 01:15 S 6 10.00 A Few Clouds FEW055 68 66.2 94% 30.03 0.0
18 00:55 Calm 10.00 Fair CLR 68 66.2 94% 30.04 0.0
18 00:35 Calm 10.00 A Few Clouds FEW060 68 66.2 94% 30.04 0.0
18 00:15 Calm 10.00 Partly Cloudy SCT060 68 66.2 94% 30.04 0.0
17 23:55 Calm 10.00 A Few Clouds FEW055 68 66.2 94% 30.04 0.0
17 23:35 S 3 10.00 A Few Clouds FEW060 68 66.2 94% 30.03 0.0
17 23:15 Calm 10.00 Fair CLR 69.8 68 94% 30.03 0.0
17 22:55 Calm 10.00 Fair CLR 71.6 68 88% 30.03 0.0
17 22:35 S 5 10.00 Fair CLR 71.6 66.2 83% 30.02 0.0
17 22:15 S 5 10.00 Fair CLR 71.6 66.2 83% 30.01 0.0
17 21:35 Vrbl 3 10.00 Fair CLR 71.6 66.2 83% 30 0.0
17 21:15 Calm 10.00 Fair CLR 71.6 66.2 83% 29.99 0.0
17 20:55 S 3 10.00 Fair CLR 73.4 66.2 78% 29.99 0.0
17 20:35 S 3 10.00 Fair CLR 75.2 68 78% 76 29.99 0.0
17 20:15 SW 5 10.00 Fair CLR 80.6 66.2 62% 83 29.99 0.0
17 19:55 S 5 10.00 Fair CLR 80.6 66.2 62% 83 29.99 0.0
17 19:35 SW 6 10.00 Fair CLR 82.4 66.2 58% 85 29.99 0.0
17 19:15 SW 7 10.00 Fair CLR 84.2 66.2 55% 87 29.99 0.0
17 18:55 SW 7 G 15 10.00 Fair CLR 84.2 66.2 55% 87 29.99 0.0
17 18:35 SW 9 10.00 Fair CLR 84.2 66.2 55% 87 29.98 0.0
17 18:15 SW 10 10.00 Fair CLR 84.2 66.2 55% 87 29.97 0.0
17 17:55 SW 12 10.00 Fair CLR 84.2 66.2 55% 87 29.97 0.0
17 17:35 SW 8 10.00 Fair CLR 84.2 68 58% 87 29.98 0.0
17 17:15 SW 9 10.00 Fair CLR 84.2 66.2 55% 87 29.98 0.0
17 16:55 SW 12 G 17 10.00 Fair CLR 84.2 66.2 55% 87 29.97 0.0
17 16:35 SW 10 G 20 10.00 Fair CLR 84.2 66.2 55% 87 29.97 0.0
17 16:15 SW 13 G 18 10.00 Fair CLR 84.2 66.2 55% 87 29.97 0.0
17 15:55 SW 8 G 21 10.00 Fair CLR 84.2 66.2 55% 87 29.97 0.0
17 15:35 SW 15 G 22 10.00 Fair CLR 84.2 66.2 55% 87 29.97 0.0
17 15:15 SW 13 G 21 10.00 Fair CLR 84.2 68 58% 87 29.97 0.0
17 14:55 SW 14 G 21 10.00 Fair CLR 84.2 68 58% 87 29.97 0.0
17 14:35 SW 9 G 21 10.00 Fair CLR 84.2 68 58% 87 29.98 0.0
17 14:15 SW 13 G 20 10.00 Fair CLR 82.4 66.2 58% 85 29.98 0.0
17 13:55 SW 10 G 17 10.00 Fair CLR 84.2 66.2 55% 87 29.99 0.0
17 13:35 SW 13 G 20 10.00 Fair CLR 82.4 66.2 58% 85 29.99 0.0
17 13:15 SW 13 G 20 10.00 Fair CLR 82.4 66.2 58% 85 29.99 0.0
17 12:55 SW 12 G 18 10.00 Fair CLR 82.4 66.2 58% 85 29.99 0.0
17 12:35 SW 8 G 15 10.00 Fair CLR 80.6 68 66% 83 30 0.0
17 12:15 S 10 10.00 Fair CLR 80.6 66.2 62% 83 30 0.0
17 11:55 S 9 10.00 Fair CLR 78.8 66.2 65% 81 30.01 0.0
17 11:35 SW 9 G 17 10.00 Fair CLR 77 66.2 69% 79 30.01 0.0
17 11:15 SW 14 10.00 Fair CLR 75.2 64.4 69% 77 30.01 0.0
17 10:55 SW 12 G 18 10.00 Fair CLR 75.2 64.4 69% 77 30.01 0.0
17 10:35 SW 10 G 17 10.00 Fair CLR 73.4 66.2 78% 30 0.0
17 10:15 S 10 10.00 Fair CLR 71.6 64.4 78% 30 0.0
17 09:55 SW 9 10.00 A Few Clouds FEW080 68 64.4 88% 30 0.0
17 09:35 S 10 10.00 Partly Cloudy SCT080 66.2 64.4 94% 30.01 0.0
17 09:15 S 6 10.00 Fair CLR 62.6 62.6 100% 30.01 0.0
17 08:55 Vrbl 6 8.00 Light Drizzle FEW075 62.6 62.6 100% 30.02 0.0 0.06
17 08:35 S 6 5.00 Light Drizzle FEW055 FEW060 BKN075 60.8 60.8 100% 30.04 0.0
17 08:15 S 6 2.00 Rain FEW035 FEW044 BKN060 60.8 60.8 100% 30.05 0.0
17 07:55 Calm 3.00 Rain SCT033 SCT043 BKN065 62.6 60.8 94% 30.06 0.0 0.04
17 07:35 Vrbl 6 3.00 Rain BKN034 OVC060 62.6 60.8 94% 30.06 0.0
17 07:15 Calm 8.00 Light Rain FEW036 BKN060 OVC075 62.6 59 88% 30.04 0.0
17 06:55 Vrbl 6 10.00 Overcast FEW065 BKN075 OVC085 62.6 59 88% 30.03 0.0
17 06:35 S 7 10.00 Mostly Cloudy FEW065 BKN075 BKN100 62.6 59 88% 30.02 0.0
17 06:15 SW 5 8.00 Light Drizzle FEW060 SCT075 BKN090 62.6 57.2 83% 30.01 0.0
17 05:55 SW 7 10.00 Overcast FEW047 BKN075 OVC095 64.4 57.2 78% 30 0.0
17 05:35 SW 5 10.00 Mostly Cloudy FEW043 FEW060 BKN095 64.4 55.4 73% 30 0.0
17 05:15 S 8 10.00 A Few Clouds FEW095 62.6 55.4 77% 29.99 0.0
17 04:55 S 8 10.00 A Few Clouds FEW060 FEW100 FEW120 62.6 55.4 77% 29.98 0.0
17 04:35 Vrbl 7 10.00 Mostly Cloudy FEW048 SCT100 BKN120 60.8 53.6 77% 29.99 0.0
17 04:15 S 7 10.00 Fair CLR 59 53.6 82% 30 0.0
17 03:55 Calm 10.00 Fair CLR 59 53.6 82% 30 0.0
17 03:35 Calm 10.00 Fair CLR 59 53.6 82% 30 0.0
17 03:15 Calm 10.00 Fair CLR 59 53.6 82% 30.01 0.0
17 02:55 Calm 10.00 Fair CLR 59 51.8 77% 30.02 0.0
17 02:35 Calm 10.00 Fair CLR 57.2 51.8 82% 30.02 0.0
17 02:15 Calm 10.00 Fair CLR 57.2 51.8 82% 30.03 0.0
17 01:55 Calm 10.00 Fair CLR 59 51.8 77% 30.04 0.0
17 01:35 Calm 10.00 Fair CLR 59 51.8 77% 30.03 0.0
17 01:15 Calm 10.00 Fair CLR 60.8 51.8 72% 30.04 0.0
17 00:55 Vrbl 5 10.00 Fair CLR 60.8 51.8 72% 30.04 0.0
17 00:35 Vrbl 3 10.00 Fair CLR 59 53.6 82% 30.04 0.0
17 00:15 Calm 10.00 Fair CLR 57.2 55.4 94% 30.05 0.0
16 23:55 Calm 10.00 Fair CLR 57.2 53.6 88% 30.05 0.0
16 23:35 Calm 10.00 Fair CLR 55.4 53.6 94% 30.05 0.0
16 23:15 Calm 10.00 Fair CLR 55.4 53.6 94% 30.05 0.0
16 22:55 Calm 10.00 Fair CLR 55.4 53.6 94% 30.05 0.0
16 22:35 Calm 10.00 Fair CLR 55.4 53.6 94% 30.06 0.0
16 22:15 Calm 10.00 Fair CLR 55.4 53.6 94% 30.07 0.0
16 21:35 Calm 10.00 Fair CLR 57.2 53.6 88% 30.08 0.0
16 21:15 Calm 10.00 Fair CLR 57.2 55.4 94% 30.08 0.0
16 20:55 Calm 10.00 Fair CLR 59 55.4 88% 30.09 0.0
16 20:35 Calm 10.00 Fair CLR 60.8 55.4 83% 30.09 0.0
16 20:15 Calm 10.00 Fair CLR 64.4 57.2 78% 30.1 0.0
16 19:55 Calm 10.00 Fair CLR 66.2 57.2 73% 30.1 0.0
16 19:35 Calm 10.00 Fair CLR 68 53.6 60% 30.11 0.0
16 19:15 Calm 10.00 Fair CLR 68 53.6 60% 30.11 0.0
16 18:55 Calm 10.00 Fair CLR 68 53.6 60% 30.11 0.0
16 18:35 Calm 10.00 Fair CLR 68 51.8 56% 30.11 0.0
16 18:15 Calm 10.00 Fair CLR 66.2 53.6 64% 30.11 0.0
16 17:55 Calm 10.00 Fair CLR 68 50 53% 30.11 0.0
16 17:35 Calm 10.00 Fair CLR 69.8 48.2 46% 30.12 0.0
16 17:15 Calm 10.00 Fair CLR 69.8 48.2 46% 30.12 0.0
16 16:55 Calm 10.00 Fair CLR 69.8 48.2 46% 30.13 0.0
16 16:35 Calm 10.00 Fair CLR 69.8 46.4 43% 30.14 0.0
16 16:15 N 5 10.00 Fair CLR 71.6 46.4 41% 30.14 0.0
16 15:55 SW 3 10.00 Fair CLR 71.6 44.6 38% 30.15 0.0
16 15:35 Calm 10.00 Fair CLR 71.6 46.4 41% 30.16 0.0
16 15:15 Calm 10.00 Fair CLR 71.6 42.8 36% 30.16 0.0
16 14:55 Calm 10.00 Fair CLR 71.6 46.4 41% 30.17 0.0
16 14:35 Calm 10.00 Fair CLR 71.6 44.6 38% 30.17 0.0
16 14:15 SW 3 10.00 Fair CLR 71.6 44.6 38% 30.18 0.0
16 13:55 Calm 10.00 Fair CLR 71.6 46.4 41% 30.19 0.0
16 13:35 Calm 10.00 Fair CLR 71.6 44.6 38% 30.19 0.0
16 13:15 Calm 10.00 Fair CLR 71.6 42.8 36% 30.2 0.0
16 12:55 Calm 10.00 Fair CLR 71.6 44.6 38% 30.2 0.0
16 12:35 Calm 10.00 Fair CLR 69.8 42.8 38% 30.2 0.0
16 12:15 Vrbl 5 10.00 Fair CLR 69.8 44.6 40% 30.21 0.0
16 11:55 Vrbl 5 10.00 Fair CLR 68 42.8 40% 30.21 0.0
16 11:35 Calm 10.00 Fair CLR 69.8 44.6 40% 30.22 0.0
16 11:15 Vrbl 3 10.00 Fair CLR 69.8 44.6 40% 30.23 0.0
16 10:55 Vrbl 5 10.00 Fair CLR 68 44.6 43% 30.23 0.0
16 10:35 Vrbl 3 10.00 Fair CLR 66.2 41 40% 30.23 0.0
16 10:15 Vrbl 3 10.00 Fair CLR 66.2 44.6 46% 30.24 0.0
16 09:55 Calm 10.00 Fair CLR 64.4 46.4 52% 30.24 0.0
16 09:35 Vrbl 3 10.00 Fair CLR 64.4 48.2 56% 30.24 0.0
16 09:15 Calm 10.00 Fair CLR 62.6 48.2 60% 30.25 0.0
16 08:55 SW 5 10.00 Fair CLR 60.8 48.2 63% 30.26 0.0
16 08:35 S 6 10.00 Fair CLR 59 48.2 68% 30.26 0.0
16 08:15 Calm 10.00 Fair CLR 57.2 48.2 72% 30.26 0.0
16 07:55 Calm 10.00 Fair CLR 55.4 48.2 77% 30.25 0.0
16 07:35 S 3 10.00 Fair CLR 53.6 48.2 82% 30.25 0.0
16 07:15 Calm 10.00 Fair CLR 50 48.2 94% 30.25 0.0
16 06:55 Calm 10.00 Fair CLR 48.2 48.2 100% 30.24 0.0
16 06:35 Calm 9.00 Fair CLR 46.4 46.4 100% 30.24 0.0
16 06:15 Calm 10.00 Fair CLR 46.4 46.4 100% 30.24 0.0
16 05:55 Calm 10.00 Fair CLR 44.6 44.6 100% 30.23 0.0
16 05:35 Calm 9.00 Fair CLR 44.6 44.6 100% 30.23 0.0
16 05:15 Calm 10.00 Fair CLR 42.8 42.8 100% 30.23 0.0
16 04:55 Calm 10.00 Fair CLR 42.8 42.8 100% 30.22 0.0
16 04:35 Calm 10.00 Fair CLR 42.8 42.8 100% 30.21 0.0
16 04:15 Calm 10.00 Fair CLR 44.6 44.6 100% 30.2 0.0
16 03:55 Calm 10.00 Fair CLR 44.6 44.6 100% 30.18 0.0
16 03:35 Calm 9.00 Fair CLR 42.8 42.8 100% 30.18 0.0
16 03:15 Calm 6.00 Fog/Mist CLR 42.8 42.8 100% 30.18 0.0
16 02:55 Calm 7.00 Fair CLR 44.6 44.6 100% 30.18 0.0
16 02:35 Calm 8.00 Fair CLR 44.6 44.6 100% 30.18 0.0
16 02:15 Calm 7.00 Fair CLR 44.6 44.6 100% 30.17 0.0
16 01:55 Calm 8.00 Fair CLR 44.6 44.6 100% 30.17 0.0
16 01:35 Calm 7.00 Fair CLR 44.6 44.6 100% 30.17 0.0
16 01:15 Calm 7.00 Fair CLR 44.6 44.6 100% 30.17 0.0
16 00:55 Calm 7.00 Fair CLR 46.4 44.6 93% 30.17 0.0
16 00:35 Calm 10.00 Fair CLR 46.4 44.6 93% 30.17 0.0
16 00:15 Calm 10.00 Fair CLR 46.4 44.6 93% 30.17 0.0
15 23:55 Calm 10.00 Fair CLR 48.2 46.4 94% 30.17 0.0
15 23:35 Calm 10.00 Fair CLR 46.4 46.4 100% 30.17 0.0
15 23:15 Calm 10.00 Fair CLR 48.2 46.4 94% 30.16 0.0
15 22:55 Calm 10.00 Fair CLR 50 48.2 94% 30.16 0.0
15 22:35 Calm 10.00 Fair CLR 48.2 46.4 94% 30.16 0.0
15 22:15 Calm 10.00 Fair CLR 48.2 46.4 94% 30.16 0.0
15 21:55 Calm 10.00 Fair CLR 50 48.2 94% 30.15 0.0
15 21:35 Calm 9.00 Fair CLR 51.8 48.2 88% 30.14 0.0
15 21:15 Calm 10.00 Fair CLR 51.8 44.6 77% 30.14 0.0
15 20:55 Calm 10.00 Fair CLR 53.6 48.2 82% 30.13 0.0
15 20:35 Calm 10.00 Fair CLR 55.4 48.2 77% 30.13 0.0
15 20:15 Calm 10.00 Fair CLR 60.8 44.6 55% 30.12 0.0
15 19:55 Vrbl 3 10.00 Fair CLR 64.4 41 43% 30.12 0.0
15 19:35 Calm 10.00 Fair CLR 64.4 41 43% 30.13 0.0
15 19:15 Vrbl 5 10.00 Fair CLR 66.2 39.2 37% 30.12 0.0
15 18:55 Vrbl 5 G 12 10.00 Fair CLR 66.2 39.2 37% 30.12 0.0
15 18:35 Vrbl 6 G 12 10.00 Fair CLR 66.2 39.2 37% 30.12 0.0
15 18:15 N 8 10.00 Fair CLR 68 39.2 35% 30.12 0.0
15 17:55 Vrbl 6 G 14 10.00 Fair CLR 66.2 39.2 37% 30.11 0.0
15 17:35 Vrbl 7 10.00 Fair CLR 66.2 41 40% 30.11 0.0
15 17:15 N 9 G 15 10.00 Fair CLR 68 42.8 40% 30.11 0.0
15 16:55 Vrbl 6 10.00 Fair CLR 68 42.8 40% 30.12 0.0
15 16:35 Vrbl 7 10.00 Fair CLR 68 42.8 40% 30.11 0.0
15 16:15 Vrbl 6 G 12 10.00 Fair CLR 68 42.8 40% 30.12 0.0
15 15:55 Vrbl 6 G 13 10.00 Fair CLR 68 44.6 43% 30.12 0.0
15 15:35 Vrbl 6 G 13 10.00 Fair CLR 66.2 42.8 43% 30.12 0.0
15 15:15 NW 8 10.00 A Few Clouds FEW050 66.2 44.6 46% 30.12 0.0
15 14:55 Vrbl 7 G 15 10.00 Partly Cloudy SCT050 66.2 44.6 46% 30.12 0.0
15 14:35 NW 8 10.00 Partly Cloudy SCT050 66.2 44.6 46% 30.12 0.0
15 14:15 Vrbl 3 G 12 10.00 Mostly Cloudy BKN049 64.4 44.6 49% 30.12 0.0
15 13:55 N 8 G 14 10.00 Partly Cloudy SCT048 66.2 44.6 46% 30.12 0.0
15 13:35 Vrbl 6 10.00 Partly Cloudy SCT048 64.4 44.6 49% 30.12 0.0
15 13:15 N 9 10.00 Partly Cloudy SCT047 64.4 44.6 49% 30.13 0.0
15 12:55 N 8 10.00 Partly Cloudy SCT043 64.4 46.4 52% 30.13 0.0
15 12:35 Vrbl 5 G 14 10.00 Mostly Cloudy BKN043 62.6 46.4 56% 30.13 0.0
Date Time (edt) Wind (mph) Vis. (mi.) Weather Sky Cond. Air Dwpt Max. Min. Relative Humidity Wind Chill (°F) Heat Index (°F) altimeter (in) sea level (mb) 1 hr 3 hr 6 hr
6 hour
Temperature (ºF) Pressure Precipitation (in)